Location: Mat�lon
(46.2791°N, 7.1028°E)
Time: 17:29:18
(UTC+00:00)

Cosmos 1048 Rocket - Pass Details

Date: 18 September 2020
Orbit: 742 x 792 km, 74.0° (Epoch: 30 October)

Event Time Altitude Azimuth Distance (km) Brightness Sun altitude
Rises 19:24:16 0° 339° (NNW) 3,257 7.9 -18.9°
Reaches altitude 10° 19:26:39 10° 340° (NNW) 2,333 7.1 -19.3°
Maximum altitude 19:31:58 80° 68° (ENE) 801 3.9 -20.1°
Enters shadow 19:34:13 36° 150° (SSE) 1,228 4.6 -20.5°
